Location: ????????
(55.6333°N, 37.7000°E)
Time: 06:10:19
(UTC+00:00)

Cosmos 1707 - Pass Details

Date: 19 May 2025
Orbit: 423 x 430 km, 82.5° (Epoch: 15 June)

Event Time Altitude Azimuth Distance (km) Brightness Sun altitude
Exits shadow 21:21:10 25° 211° (SSW) 909 3.5 -14.4°
Maximum altitude 21:22:54 61° 285° (WNW) 498 2.6 -14.4°
Drops below altitude 10° 21:26:16 10° 6° (N) 1,555 6.5 -14.4°
Sets 21:28:21 0° 10° (N) 2,430 7.9 -14.4°
